Weather in Sosnovka

Russia / Perm Krai     57°03′03″N   56°28′16″E
temp.,
°C
wind,
m/s
gust,
m/s
humid.,
%
clouds,
%
prec.,
mm/h
press.,
hPa
HPBL,
m
28 february, sun
sun2823:00−16e41093100 0.6 1007386
02:00−15ene4895100 0.2 1006354
05:00−15ene4995100 0.5 1006419
08:00−16ne4994100 0.3 1005337
11:00−14ene5992100 0.4 1006505
14:00−11ene5891100 0.3 1006600
17:00−11ne5892100 0.6 1007581
20:00−13ne4995100 0.1 1009375
1 march, mon
mon123:00−14ne4895100 0.4 1011390
02:00−16ne4896100 0.3 1012349
05:00−17ne369799 0.5 1014239
08:00−17ne379699 0.2 1015264
11:00−16ne359399 0.3 1017345
14:00−13ne2389100 0.0 1016441
17:00−12nne1289100 0.1 1017395
20:00−18s019989 0.0 101720
2 march, tue
tue223:00−18sw229761 0.0 101720
02:00−18sw359883 0.0 1015114
05:00−19ssw5119789 0.1 1013314
08:00−19ssw61395100 0.0 1010375
11:00−17ssw71394100 0.2 1008395
14:00−14ssw71493100 0.4 1004534
17:00−13ssw71392100 0.7 1002600
20:00−12ssw51292100 0.3 1001589
3 march, wed
wed323:00−11ssw51292100 0.5 1000480
02:00−10ssw41194100 0.4 998450
05:00−9s3995100 1.2 998349
08:00−9ssw129797 0.4 99721
11:00−6w249395 0.4 998270
14:00−4wsw479298 0.1 998495
17:00−3wsw589199 0.2 999778
20:00−8w389395 0.1 999196
4 march, thu
thu423:00−9w389483 0.1 1002188
02:00−11w469450 0.0 1002127
05:00−14w369525 0.0 100394
08:00−12wsw379476 0.0 1003155
11:00−9sw479280 0.0 1003410
14:00−6sw588897 0.1 1002754
17:00−6ssw6108998 0.1 1000703
20:00−7s61393100 0.3 997719